TimeMST,TemperatureF,Dew PointF,Humidity,Sea Level PressureIn,VisibilityMPH,Wind Direction,Wind SpeedMPH,Gust SpeedMPH,PrecipitationIn,Events,Conditions,WindDirDegrees,DateUTC
12:53 AM,33.1,9.0,37,29.94,10.0,NE,9.2,-,N/A,,Clear,40,2013-11-04 07:53:00
1:53 AM,30.0,10.0,43,29.95,10.0,Calm,Calm,-,N/A,,Clear,0,2013-11-04 08:53:00
2:53 AM,32.0,9.0,38,29.95,10.0,Calm,Calm,-,N/A,,Clear,0,2013-11-04 09:53:00
3:53 AM,32.0,8.1,37,29.95,10.0,Calm,Calm,-,N/A,,Clear,0,2013-11-04 10:53:00
4:53 AM,30.0,8.1,40,29.98,10.0,West,4.6,-,N/A,,Clear,260,2013-11-04 11:53:00
5:53 AM,34.0,7.0,32,29.98,10.0,Calm,Calm,-,N/A,,Clear,0,2013-11-04 12:53:00
6:53 AM,28.9,7.0,40,30.00,10.0,West,4.6,-,N/A,,Clear,270,2013-11-04 13:53:00
7:53 AM,32.0,9.0,38,30.02,10.0,Calm,Calm,-,N/A,,Clear,0,2013-11-04 14:53:00
8:53 AM,37.0,9.0,31,30.02,10.0,NNE,3.5,-,N/A,,Clear,20,2013-11-04 15:53:00
9:53 AM,39.0,10.0,30,30.01,10.0,NW,5.8,-,N/A,,Scattered Clouds,310,2013-11-04 16:53:00
10:53 AM,41.0,9.0,27,29.98,10.0,NNW,5.8,-,N/A,,Clear,340,2013-11-04 17:53:00
11:53 AM,39.9,9.0,28,29.97,10.0,WNW,8.1,-,N/A,,Partly Cloudy,300,2013-11-04 18:53:00
12:53 PM,42.1,8.1,25,29.93,10.0,WNW,6.9,-,N/A,,Overcast,300,2013-11-04 19:53:00
1:53 PM,43.0,6.1,22,29.92,10.0,North,4.6,-,N/A,,Overcast,350,2013-11-04 20:53:00
2:53 PM,42.1,5.0,22,29.92,10.0,NW,6.9,-,N/A,,Overcast,310,2013-11-04 21:53:00
3:53 PM,42.1,3.9,21,29.93,10.0,WNW,5.8,-,N/A,,Overcast,300,2013-11-04 22:53:00
4:53 PM,42.1,3.9,21,29.94,10.0,West,5.8,-,N/A,,Overcast,270,2013-11-04 23:53:00
5:53 PM,41.0,6.1,24,29.94,10.0,West,4.6,-,N/A,,Overcast,280,2013-11-05 00:53:00
6:53 PM,39.9,19.9,45,29.98,10.0,WNW,12.7,-,N/A,,Overcast,290,2013-11-05 01:53:00
7:53 PM,37.9,24.1,57,29.99,10.0,WNW,8.1,-,N/A,,Mostly Cloudy,300,2013-11-05 02:53:00
8:53 PM,37.9,24.1,57,29.99,10.0,WNW,8.1,-,N/A,,Overcast,300,2013-11-05 03:53:00
9:53 PM,37.9,21.9,53,29.99,10.0,WNW,15.0,-,N/A,,Overcast,300,2013-11-05 04:53:00
10:53 PM,37.9,21.9,53,29.99,10.0,WNW,12.7,-,N/A,,Overcast,290,2013-11-05 05:53:00
11:53 PM,37.0,21.0,52,30.03,10.0,North,8.1,-,N/A,,Overcast,350,2013-11-05 06:53:00